Hourly Data Report for October 16, 2015

All times are specified in Local Standard Time (LST). Add 1 hour to adjust for Daylight Saving Time where and when it is observed.

WINNIPEG A CS
MANITOBA

49°55'00.000" N
97°14'58.000" W
238.70 m
502S001
71849
XWG

Download Data

Hourly Data (October 2015)
Hourly Data Report for October 16, 2015
Temp Definition
°C
Dew Point Temp Definition
°C
Rel Hum Definition
%
Wind Dir Definition
10's deg

Wind Spd Definition
km/h
Visibility Definition
km
Stn Press Definition
kPa
Hmdx Definition


Wind Chill Definition


Weather Definition


TIME
00:00 -5.1 -6.6 89 28 14   100.06   -10 LegendNANA
01:00 -3.9 -5.4 89 28 13   100.08   -9 LegendNANA
02:00 -2.4 -4.2 88 28 12   100.10   -7 LegendNANA
03:00 -2.1 -3.9 87 27 10   100.09   -6 LegendNANA
04:00 -1.0 -2.9 87 26 12   100.09   -5 LegendNANA
05:00 -2.7 -4.3 88 26 9   100.11   -6 LegendNANA
06:00 -1.2 -3.4 85 25 12   100.09   -5 LegendNANA
07:00 -0.4 -3.5 79 25 9   100.06   -4 LegendNANA
08:00 0.6 -3.1 76 25 9   100.06     LegendNANA
09:00 1.6 -2.0 77 23 6   100.08     LegendNANA
10:00 3.6 -1.3 70 25 13   100.04     LegendNANA
11:00 6.1 -2.1 56 24 17   100.00     LegendNANA
12:00 7.8 -0.4 56 26 18   99.95     LegendNANA
13:00 9.5 0.6 54 30 24   99.87     LegendNANA
14:00 9.1 -0.4 51 30 34   99.86     LegendNANA
15:00 8.7 -0.8 51 32 40   99.88     LegendNANA
16:00 8.6 -2.5 46 32 34   99.89     LegendNANA
17:00 6.4 -2.0 55 31 23   99.90     LegendNANA
18:00 2.0 -2.4 73 31 15   99.90     LegendNANA
19:00 2.1 -2.2 73 2 11   99.91     LegendNANA
20:00 -0.2 -4.0 75 32 9   99.97   -3 LegendNANA
21:00 -1.5 -4.2 82 30 9   100.01   -5 LegendNANA
22:00 -3.4 -5.8 83 27 7   100.06   -6 LegendNANA
23:00 -4.4 -6.0 89 30 12   100.10   -9 LegendNANA

Notes on Data Quality.

Legend

  • E = Estimated
  • M = Missing
  • NA = Not Available
  • ‡ = Partner data that is not subject to review by the National Climate Archives
Date modified: